This is the latest recevied weather packets stored in our database for station/object DB0MOE-6. If no packets are shown the sender has not sent any weather packets the latest 1 day(s).
| Time | Temp. | Humidity | Pressure | Rain* | Wind** | Luminosity | Snow |
|---|---|---|---|---|---|---|---|
| 1778016922 | 13.89° C | 82% | 988.4 hPa | 0 mm | 0.45 m/s, 135° | - | - |
| 1778016862 | 13.89° C | 81% | 988.5 hPa | 0 mm | 0.45 m/s, 100° | - | - |
| 1778016802 | 13.89° C | 81% | 988.3 hPa | 0 mm | 0.45 m/s, 112° | - | - |
| 1778016742 | 13.89° C | 82% | 988.2 hPa | 0 mm | 0.45 m/s, 135° | - | - |
| 1778016682 | 13.89° C | 82% | 988.4 hPa | 0 mm | 0.45 m/s, 127° | - | - |
| 1778016622 | 13.89° C | 81% | 988.3 hPa | 0 mm | 0.45 m/s, 112° | - | - |
| 1778016562 | 13.89° C | 81% | 988.4 hPa | 0 mm | 0.45 m/s, 132° | - | - |
| 1778016501 | 13.89° C | 81% | 988.3 hPa | 0 mm | 0.89 m/s, 115° | - | - |
| 1778016441 | 13.89° C | 82% | 988.4 hPa | 0 mm | 0.45 m/s, 150° | - | - |
| 1778016381 | 13.89° C | 82% | 988.3 hPa | 0 mm | 0.45 m/s, 181° | - | - |
| 1778016321 | 13.89° C | 82% | 988.4 hPa | 0 mm | 0.45 m/s, 113° | - | - |
| 1778016261 | 13.89° C | 82% | 988.5 hPa | 0 mm | 0.45 m/s, 78° | - | - |
| 1778016201 | 13.89° C | 82% | 988.5 hPa | 0 mm | 0.45 m/s, 135° | - | - |
| 1778016141 | 13.89° C | 82% | 988.4 hPa | 0 mm | 0.45 m/s, 152° | - | - |
| 1778016081 | 13.89° C | 83% | 988.5 hPa | 0 mm | 0 m/s | - | - |
| 1778016021 | 13.89° C | 83% | 988.6 hPa | 0 mm | 0.45 m/s, 112° | - | - |
| 1778015961 | 13.89° C | 82% | 988.3 hPa | 0 mm | 0 m/s | - | - |
| 1778015903 | 13.89° C | 82% | 988.5 hPa | 0 mm | 0.45 m/s, 112° | - | - |
| 1778015843 | 13.89° C | 83% | 988.4 hPa | 0 mm | 0 m/s | - | - |
| 1778015783 | 13.89° C | 82% | 988.5 hPa | 0 mm | 0 m/s | - | - |
| 1778015723 | 13.89° C | 82% | 988.5 hPa | 0 mm | 0.45 m/s, 60° | - | - |
| 1778015663 | 13.89° C | 81% | 988.5 hPa | 0 mm | 0.45 m/s, 55° | - | - |
| 1778015603 | 13.89° C | 81% | 988.5 hPa | 0 mm | 0 m/s | - | - |
| 1778015542 | 13.89° C | 81% | 988.5 hPa | 0 mm | 0.45 m/s, 172° | - | - |
| 1778015482 | 13.89° C | 81% | 988.5 hPa | 0 mm | 0.45 m/s, 121° | - | - |
* Rain latest hour (hover to see other rain measurements)
** Current wind speed in m/s (hover to see current wind gust speed)